Weather History for Bennington, VT

Change the Weather History Date:

Wednesday, November 6, 2013

  Actual Average Record
Temperature  
Mean Temperature 50 °F 41 °F  
Max Temperature 59 °F 51 °F 71 °F (2005)
Min Temperature 41 °F 32 °F 17 °F (2012)
Degree Days  
Heating Degree Days 15 24  
Month to date heating degree days 133 138  
Since 1 July heating degree days 887 959  
Cooling Degree Days 0 0  
Month to date cooling degree days 0 0  
Year to date cooling degree days 503 313  
Moisture  
Dew Point 40 °F    
Average Humidity 67    
Maximum Humidity 82    
Minimum Humidity 51    
Precipitation  
Precipitation 0.00 in 0.11 in 0.42 in (2002)
Month to date precipitation 0.51 0.68  
Year to date precipitation 39.80 35.48  
Sea Level Pressure  
Sea Level Pressure 30.24 in    
Wind  
Wind Speed 8 mph (South)    
Max Wind Speed 20 mph    
Max Gust Speed 30 mph    
Visibility 10 miles    
Events      
T = Trace of Precipitation, MM = Missing Value Source: NWS Daily Summary

Daily Weather History Graph

Daily Weather History Graph

Search for Another Location

Airport:

Trip Planner

Search our weather history database for the weather conditions in past years. The results will help you decide how hot, cold, wet, or windy it might be!

Date:

Astronomy

Nov. 06, 2013 Rise Set
Actual Time 6:33 AM EST 4:38 PM EST
Civil Twilight 6:04 AM EST 5:08 PM EST
Nautical Twilight 5:30 AM EST 5:42 PM EST
Astronomical Twilight 4:57 AM EST 6:15 PM EST
Moon 9:48 AM EST (11/6) 7:38 PM EST (11/6)
Length of Visible Light 11h 04m
Length of Day
10h 04m
Waxing Crescent, 13% of the Moon is Illuminated
Nov 6
Waxing Crescent
Nov 10
First Quarter
Nov 17
Full
Nov 25
Last Quarter
Dec 2
New

Hourly Weather History & Observations

Time (EST) Temp. Windchill Dew Point Humidity Pressure Visibility Wind Dir Wind Speed Gust Speed Precip Events Conditions
12:54 AM 43.0 °F - 34.0 °F 71% 30.45 in 10.0 mi Calm Calm - N/A   Clear
1:54 AM 42.1 °F - 34.0 °F 73% 30.45 in 10.0 mi Calm Calm - N/A   Clear
2:54 AM 42.1 °F - 35.1 °F 76% 30.43 in 10.0 mi Calm Calm - N/A   Clear
3:54 AM 42.1 °F 40.2 °F 35.1 °F 76% 30.42 in 10.0 mi ESE 3.5 mph - N/A   Clear
4:54 AM 42.1 °F - 36.0 °F 79% 30.40 in 10.0 mi Calm Calm - N/A   Clear
5:54 AM 41.0 °F - 36.0 °F 82% 30.39 in 10.0 mi Calm Calm - N/A   Clear
6:54 AM 43.0 °F - 37.0 °F 80% 30.38 in 10.0 mi Calm Calm - N/A   Clear
7:54 AM 48.0 °F - 39.0 °F 71% 30.36 in 10.0 mi Variable 5.8 mph - N/A   Clear
8:54 AM 50.0 °F - 41.0 °F 71% 30.34 in 10.0 mi South 13.8 mph 20.7 mph N/A   Mostly Cloudy
9:14 AM 50.0 °F - 41.0 °F 71% 30.31 in 10.0 mi South 5.8 mph - N/A   Scattered Clouds
9:43 AM 53.6 °F - 42.8 °F 67% 30.30 in 10.0 mi SSW 8.1 mph - N/A   Mostly Cloudy
9:54 AM 53.1 °F - 41.0 °F 64% 30.31 in 10.0 mi SSW 9.2 mph - N/A   Mostly Cloudy
10:10 AM 53.6 °F - 41.0 °F 62% 30.28 in 10.0 mi South 12.7 mph 18.4 mph N/A   Scattered Clouds
10:54 AM 54.0 °F - 41.0 °F 62% 30.29 in 10.0 mi South 11.5 mph - N/A   Scattered Clouds
11:54 AM 57.9 °F - 41.0 °F 53% 30.25 in 10.0 mi South 9.2 mph 17.3 mph N/A   Overcast
12:54 PM 57.9 °F - 41.0 °F 53% 30.21 in 10.0 mi South 16.1 mph 24.2 mph N/A   Scattered Clouds
1:54 PM 57.0 °F - 39.9 °F 53% 30.18 in 10.0 mi South 17.3 mph - N/A   Clear
2:54 PM 57.9 °F - 41.0 °F 53% 30.19 in 10.0 mi South 17.3 mph 23.0 mph N/A   Clear
3:54 PM 55.9 °F - 39.9 °F 55% 30.18 in 10.0 mi South 11.5 mph 18.4 mph N/A   Clear
4:54 PM 53.1 °F - 39.9 °F 61% 30.14 in 10.0 mi South 8.1 mph - N/A   Clear
5:54 PM 52.0 °F - 41.0 °F 66% 30.13 in 10.0 mi SSE 10.4 mph - N/A   Clear
6:54 PM 54.0 °F - 42.1 °F 64% 30.09 in 10.0 mi Variable 4.6 mph - N/A   Clear
7:54 PM 55.0 °F - 42.1 °F 62% 30.06 in 10.0 mi Variable 5.8 mph 16.1 mph N/A   Clear
8:54 PM 55.9 °F - 43.0 °F 62% 30.04 in 10.0 mi SW 9.2 mph - N/A   Clear
9:54 PM 55.9 °F - 43.0 °F 62% 30.00 in 10.0 mi SSW 10.4 mph 19.6 mph N/A   Partly Cloudy
10:54 PM 55.9 °F - 44.1 °F 64% 29.98 in 10.0 mi South 10.4 mph 19.6 mph N/A   Scattered Clouds
11:54 PM 57.9 °F - 46.0 °F 65% 29.96 in 10.0 mi South 10.4 mph 19.6 mph N/A   Mostly Cloudy